Temp
19 21 21 21 20 22 22 21 22 22 22 22 22 21 18 18 17 18 18 18 18 19 19 17 16 16 16 15 15 15 15 16 15 15 14 14 14 14 14 15 15 15 15 14
20 20 21 20 20 21 21 22 22 22 21 21 20 20 20 18 18 19 19 19 19 19 19 17 16 16 15 16 15 15 15 16 15 15 15 14 14 13 14 14 14 14 14 14
20 22 20 20 20 21 22 22 21 22 21 20 21 21 19 19 19 19 19 20 20 20 20 19 17 16 16 16 15 15 15 15 15 15 15 15 14 13 12 12 13 13 13 13
20 20 21 21 21 22 22 21 21 20 21 22 20 23 21 19 19 19 20 19 20 20 20 20 19 17 16 16 15 15 15 16 15 15 14 15 14 13 12 12 12 12 12 12
21 20 21 21 22 21 23 21 21 21 21 21 21 22 23 19 20 21 21 21 20 20 20 20 20 19 18 16 15 15 14 14 15 14 13 13 13 13 13 13 12 11 11 12
20 20 21 22 21 21 21 21 20 19 20 21 20 21 23 22 23 23 23 22 21 21 20 20 19 19 18 16 15 16 15 14 14 13 13 12 13 13 13 12 11 11 11 11
20 21 21 21 22 21 21 21 21 21 20 21 19 20 23 23 22 22 23 23 22 21 21 20 19 18 17 15 14 14 15 14 15 15 13 12 13 13 13 13 12 11 10 10
21 20 21 21 22 22 21 21 21 20 19 21 18 20 24 22 22 21 21 20 21 20 21 21 21 19 18 15 15 15 14 16 18 14 13 12 12 13 14 14 13 12 11 9
18 20 20 20 21 22 21 21 19 17 15 18 20 21 22 22 22 21 20 19 20 20 19 20 20 19 18 16 15 15 15 15 15 13 12 12 12 13 13 13 11 11 10 9
20 20 19 20 20 20 21 20 20 18 19 19 19 19 23 23 23 22 22 22 20 19 18 18 18 18 17 16 15 15 15 15 15 13 12 12 13 13 12 11 10 9 9 10
18 20 19 20 21 22 20 20 18 19 18 20 19 21 20 22 22 22 21 20 20 19 18 18 17 16 16 16 15 15 15 15 13 13 12 13 13 12 12 11 9 9 9 9
19 18 18 20 19 20 20 20 19 19 19 16 16 20 21 21 20 20 21 20 19 19 18 18 17 16 15 15 14 14 13 13 13 14 14 13 12 12 10 10 9 9 9 9
18 18 19 20 20 19 20 19 18 16 16 16 18 21 20 20 20 20 20 20 19 18 18 17 16 16 15 14 13 12 13 12 14 13 12 11 11 9 8 8 9 8 9 9
19 17 19 20 21 19 19 18 18 19 17 18 18 21 22 22 21 22 20 19 19 19 18 17 16 15 14 13 13 13 13 12 11 9 9 9 8 8 8 8 7 8 8 9
19 19 17 18 19 19 20 19 18 19 19 20 21 18 21 22 21 20 18 18 18 18 17 16 15 15 14 13 12 12 11 12 12 11 10 10 10 8 7 7 8 8 9 8
16 19 16 18 17 18 18 19 18 18 18 18 18 19 20 19 18 18 16 16 16 15 15 15 15 14 14 13 13 12 11 11 11 10 9 8 8 7 8 8 8 8 7 7
16 15 16 18 15 17 16 17 18 18 18 19 19 21 19 18 17 16 15 15 13 12 12 11 11 11 11 11 10 10 10 9 8 8 7 8 8 8 7 7 7 6 5 4
14 15 14 15 13 17 20 17 18 19 18 18 18 18 18 17 14 13 14 14 12 10 10 9 9 8 7 8 8 8 8 7 7 6 6 6 6 5 5 5 4 3 3 3
14 13 13 15 16 17 18 17 18 18 21 18 18 17 15 14 14 12 9 10 9 8 7 6 6 6 6 6 5 6 5 5 5 4 4 4 4 3 3 3 3 2 2 2
12 12 16 12 16 17 18 18 16 18 19 18 17 15 14 14 17 16 9 8 6 6 5 5 5 5 5 4 4 5 4 4 3 3 3 3 3 3 3 2 3 3 2 2
13 12 15 12 15 16 17 17 17 18 21 16 16 15 15 15 15 12 7 6 5 5 4 4 4 4 4 4 4 4 4 3 3 3 3 3 3 3 3 3 3 2 2 1
15 14 13 12 14 17 15 15 18 19 15 15 15 15 14 10 8 8 7 6 5 5 4 4 4 3 3 4 4 3 2 3 3 3 2 2 2 2 2 2 1 1 0 0
16 15 15 16 17 16 15 17 16 15 16 14 15 13 11 9 8 7 6 5 5 4 4 4 3 3 2 2 3 2 1 2 2 2 1 1 1 1 1 0 0 0 -0 -0
13 12 15 16 16 15 15 14 14 14 15 14 14 13 11 9 7 6 5 5 4 4 4 3 3 2 1 0 0 0 1 2 1 0 -1 -1 -1 -1 -1 -1 -1 -1 -1 -2
13 14 13 14 14 13 14 14 15 12 11 11 11 11 10 8 6 6 5 4 4 3 2 2 1 0 -1 -1 -2 -1 0 0 -1 -1 -2 -2 -2 -2 -2 -3 -3 -3 -3 -4
13 14 14 15 17 17 17 15 11 11 11 10 9 7 7 7 6 5 4 3 3 2 1 1 -0 -1 -2 -3 -3 -2 -1 -1 -2 -2 -3 -4 -4 -4 -4 -4 -4 -5 -6 -6
Height
789 792 795 788 793 788 790 795 796 788 782 786 788 791 797 798 801 801 802 801 801 803 807 812 815 818 821 825 828 830 831 834 838 841 844 847 848 852 857 858 860 861 863 865
793 794 785 786 789 791 791 794 793 789 786 787 793 795 793 797 793 794 796 798 797 798 803 805 809 813 817 820 823 825 828 831 835 838 840 843 847 852 853 854 857 860 861 863
792 783 782 785 791 793 789 790 793 792 788 789 788 793 796 794 793 792 794 793 794 794 794 798 802 804 809 812 815 820 826 829 832 834 837 842 846 848 851 854 854 857 859 862
786 779 780 784 787 787 789 783 786 792 791 796 791 795 791 792 791 790 784 789 788 790 792 791 795 799 801 805 812 816 819 822 827 830 834 834 839 843 845 849 852 854 857 860
781 780 781 783 781 782 783 781 784 786 794 795 796 796 782 792 791 781 777 776 778 780 784 785 787 790 794 801 805 810 815 819 824 827 830 833 835 838 841 846 850 853 856 858
776 772 773 771 773 776 779 785 791 797 798 804 800 797 783 782 772 768 765 768 769 771 774 778 782 787 791 796 799 804 809 815 818 822 824 828 829 831 837 842 846 849 851 854
779 775 770 769 774 775 780 790 799 802 806 804 802 804 779 767 765 763 759 760 760 763 767 769 775 778 783 788 793 799 804 811 819 821 822 823 824 828 831 835 837 842 846 848
783 790 773 768 769 773 781 785 797 812 812 799 804 799 772 763 762 761 759 756 758 758 758 759 760 766 773 780 786 792 797 803 803 809 815 819 821 823 827 829 831 835 839 843
789 785 769 768 766 768 781 787 788 808 824 810 797 784 766 762 758 759 759 758 754 753 754 753 756 762 768 774 777 780 789 797 798 803 810 812 817 819 821 825 827 830 834 838
769 780 772 769 766 773 774 778 792 799 807 811 797 796 777 764 759 757 754 752 751 751 753 754 756 759 766 771 776 781 786 789 793 798 802 805 809 812 816 820 821 825 830 835
766 769 780 771 770 770 780 782 790 789 798 796 802 787 765 759 755 755 754 754 752 749 748 751 755 759 763 768 773 777 781 784 788 792 796 800 802 806 810 814 816 820 826 831
758 769 784 771 766 763 767 771 777 789 797 808 808 786 755 755 757 756 750 751 752 751 749 749 752 756 760 765 770 773 778 781 785 788 790 794 798 800 804 807 811 817 821 826
756 772 780 774 772 769 768 770 776 785 793 798 797 777 755 755 751 750 750 748 748 748 748 749 751 755 759 764 767 771 773 778 781 784 788 790 794 798 802 804 809 811 814 820
740 763 763 769 761 763 772 769 772 770 786 780 782 763 753 748 749 742 744 745 745 746 747 749 753 757 760 763 765 768 770 775 780 785 789 792 795 798 802 804 806 809 813 818
741 756 762 757 756 757 756 758 767 767 765 769 760 769 752 745 745 744 746 746 743 744 747 750 752 755 759 762 765 767 772 775 779 782 786 788 791 794 797 802 806 811 814 818
746 751 758 759 760 759 761 755 758 761 764 764 762 761 744 743 746 748 749 749 749 750 751 752 754 756 758 762 765 767 770 773 777 780 784 787 791 795 798 803 808 812 816 820
746 756 762 762 769 761 768 760 754 752 753 748 757 739 742 745 747 749 752 753 756 758 758 758 760 761 763 764 765 769 772 775 778 782 785 788 792 795 799 802 806 810 814 817
749 752 760 768 775 771 737 741 739 740 741 743 742 740 740 743 753 755 754 753 760 763 763 765 766 767 767 768 768 771 774 777 780 784 787 790 793 796 799 803 807 812 815 819
739 750 764 763 760 749 739 739 739 741 728 729 732 737 744 750 751 759 764 762 763 767 767 768 769 770 771 772 775 776 779 783 786 790 792 795 797 800 803 807 810 814 817 819
746 745 742 770 757 752 730 723 729 730 737 722 727 734 741 746 745 747 764 766 767 769 770 770 773 775 776 778 780 781 786 789 792 795 798 801 803 806 808 811 813 815 817 818
745 750 744 763 750 738 723 723 724 743 722 718 720 726 733 736 736 747 763 767 769 772 773 775 776 778 781 783 784 786 791 795 800 802 804 806 808 809 811 812 813 814 814 815
726 738 746 757 752 737 718 726 727 709 713 715 720 723 731 741 750 755 762 767 771 774 776 778 778 782 786 788 788 793 798 802 803 805 806 808 809 810 811 812 813 813 813 812
720 714 720 718 714 705 708 699 703 706 708 713 715 723 732 743 750 757 763 769 774 776 778 781 782 785 790 793 795 798 802 803 805 807 809 810 811 811 811 812 812 811 811 810
716 714 709 712 702 703 703 703 703 703 705 708 710 717 728 737 749 756 763 769 774 778 780 783 786 790 795 798 799 801 804 805 807 809 811 812 812 812 812 812 812 812 810 809
706 706 709 707 701 704 700 698 697 703 707 709 714 719 726 736 749 755 762 769 774 778 782 786 790 794 799 801 802 804 806 807 809 811 812 812 812 811 811 811 811 811 810 809
699 695 700 696 678 681 681 684 697 701 705 708 712 724 732 735 743 753 762 769 773 779 784 788 793 796 800 802 804 805 807 808 810 811 812 812 811 811 811 810 810 809 807 805
Wind_Speed
1 2 6 7 5 5 3 2 2 3 1 4 7 7 14 16 13 12 11 11 12 14 14 18 21 25 27 27 25 24 24 25 24 25 21 19 22 20 19 18 18 17 18 20
1 5 5 4 3 5 2 2 2 2 3 5 4 5 8 15 18 15 13 13 15 13 12 16 22 25 27 28 28 26 26 27 27 25 24 17 23 22 19 18 18 19 21 22
4 3 4 4 4 5 5 2 2 4 1 2 1 6 5 8 12 13 14 13 14 15 15 13 21 27 28 29 29 26 23 27 27 24 25 24 23 18 18 20 21 22 22 22
4 2 4 4 5 4 2 4 1 1 2 1 4 2 2 5 13 13 15 16 17 17 16 15 19 23 27 27 23 24 26 29 28 28 28 30 26 21 17 21 20 23 24 23
4 4 4 4 5 4 4 2 2 1 2 2 2 1 1 3 11 19 19 17 19 19 18 19 22 26 27 25 26 27 24 26 29 33 31 29 22 19 20 24 23 24 23 22
4 1 4 5 3 3 3 2 4 3 2 2 2 2 3 4 6 8 21 19 19 18 18 19 24 24 24 22 25 29 28 26 28 29 26 30 28 29 25 29 28 26 25 25
0 3 2 2 3 2 3 2 2 1 1 2 3 2 7 6 9 10 10 17 19 17 17 17 17 23 24 26 26 26 28 23 20 28 31 32 35 33 31 33 33 31 28 28
6 3 6 4 4 5 4 5 4 3 3 2 2 4 3 4 5 9 11 11 9 15 16 19 20 24 26 27 28 28 32 30 30 35 32 29 29 30 30 34 35 36 36 27
5 4 1 1 2 3 4 3 2 6 1 2 1 4 8 2 3 3 0 4 9 9 13 18 18 22 22 24 30 34 32 34 33 30 28 27 28 30 35 34 34 37 32 29
7 2 1 2 3 4 2 7 2 1 2 2 2 3 4 4 3 5 6 5 5 4 7 10 12 17 17 20 24 25 26 30 32 27 26 28 31 33 33 32 32 34 33 31
5 3 1 1 4 7 3 3 3 3 2 3 2 4 6 6 3 4 5 6 5 7 6 7 8 12 15 17 20 22 25 25 24 23 26 29 30 31 34 32 33 34 32 32
6 4 4 7 0 2 3 5 5 3 4 0 0 5 4 8 6 6 8 4 4 6 6 5 6 9 10 13 15 18 18 21 23 26 27 28 29 30 31 30 29 31 33 33
7 2 2 2 2 2 3 4 3 5 3 7 4 5 1 4 6 5 9 6 4 4 4 5 5 5 6 8 10 12 16 16 21 21 21 22 24 25 24 24 26 30 36 34
13 4 6 10 8 4 4 6 7 4 3 4 6 9 8 9 7 10 7 6 7 4 4 3 3 2 4 7 10 10 12 11 11 11 12 14 15 16 17 19 24 29 31 32
5 7 6 5 5 5 6 6 11 9 6 7 8 9 9 7 6 6 6 6 3 3 2 1 2 3 5 6 6 7 9 11 11 12 12 13 14 14 14 16 20 23 25 26
2 4 5 4 3 5 4 7 10 9 3 8 7 8 10 4 3 2 3 3 6 7 8 8 6 4 3 1 1 1 2 4 6 8 8 8 9 11 13 13 13 15 17 16
4 7 4 4 1 3 5 7 11 5 5 6 8 12 4 5 5 4 6 8 9 9 10 11 10 11 11 9 6 5 3 1 3 4 4 5 6 8 8 9 11 12 14 14
6 5 2 3 1 6 4 1 2 11 6 9 7 6 5 3 6 5 4 11 9 8 9 9 10 13 13 13 15 13 11 11 10 9 8 7 8 10 11 14 19 19 15 10
3 5 3 5 5 4 3 5 7 7 14 10 13 5 5 11 8 4 4 6 9 8 9 12 13 15 16 16 15 18 18 17 16 15 14 13 14 18 20 20 15 11 5 5
4 3 3 3 5 10 5 4 6 4 12 8 11 10 16 11 7 6 8 7 10 11 12 15 15 16 18 16 17 22 20 19 19 17 17 17 17 15 13 10 5 1 5 11
3 2 6 3 4 6 6 4 6 6 13 7 13 13 16 9 1 11 12 10 12 13 15 16 17 20 19 18 22 26 23 22 18 17 15 13 10 8 5 3 6 7 8 8
7 7 4 3 2 8 8 6 10 6 2 5 10 13 12 9 13 14 13 13 13 16 16 17 22 22 20 20 23 22 18 13 12 12 14 13 10 8 6 5 6 7 8 10
4 6 6 9 7 2 10 4 7 4 4 5 11 11 14 16 10 13 13 13 13 17 18 19 24 24 20 18 18 20 15 16 15 14 13 11 9 8 7 7 7 8 8 10
3 3 3 3 5 7 7 4 4 6 5 6 9 16 17 15 18 16 14 13 15 18 20 22 24 23 20 17 18 17 15 14 14 13 11 10 9 8 8 7 7 9 10 12
4 8 6 3 5 2 9 10 6 5 5 8 9 9 15 20 17 17 15 15 19 20 20 20 22 21 19 18 19 18 15 13 13 10 9 9 8 9 9 9 10 10 9 11
5 7 5 6 10 6 5 12 9 10 10 12 14 13 13 17 19 19 15 20 22 22 22 22 21 21 18 18 18 16 14 12 10 9 9 10 9 9 9 10 10 10 10 10
Wind_Direction
1 169 221 221 200 181 155 180 220 245 280 204 224 181 192 192 214 221 223 232 231 222 215 203 202 203 205 209 210 211 210 210 206 199 194 196 198 199 199 199 199 195 188 179
112 229 223 159 191 213 162 233 295 268 337 197 120 203 198 192 217 216 219 225 228 236 211 204 201 203 208 211 213 213 214 210 203 200 200 200 204 200 198 194 190 185 180 179
191 196 118 146 198 221 171 245 224 246 77 50 262 143 177 214 228 235 227 232 239 231 230 211 201 204 206 211 211 211 211 213 209 203 203 203 204 198 191 187 182 182 182 181
232 247 173 181 217 222 233 173 49 292 154 248 317 292 176 200 215 229 237 213 225 223 226 226 217 210 211 212 209 211 214 215 213 209 203 203 197 190 194 189 184 181 183 184
232 179 189 189 198 182 230 167 138 140 125 140 25 225 217 147 215 228 229 231 221 220 216 218 219 219 217 207 206 212 210 215 216 217 211 205 201 200 196 190 184 185 184 188
203 243 179 214 161 161 128 115 53 65 109 184 158 228 270 208 213 231 229 229 230 228 219 219 218 216 217 208 208 215 211 213 218 223 219 212 204 203 190 189 189 188 187 187
262 218 247 170 142 106 110 86 269 188 179 188 139 157 249 253 266 250 256 220 226 225 226 224 209 204 202 195 199 202 204 204 226 240 227 219 216 209 199 197 197 193 190 192
187 262 185 184 191 189 174 192 172 205 201 184 177 220 232 201 245 267 274 274 257 223 225 227 223 212 203 192 189 194 196 186 186 240 225 217 216 212 215 211 206 207 203 200
150 247 229 196 142 172 159 196 110 107 43 240 236 264 275 298 340 332 233 235 265 254 227 229 228 217 206 192 192 196 199 194 201 210 211 214 220 225 222 219 215 208 206 202
196 178 222 149 132 50 198 141 140 47 177 247 264 275 245 306 323 334 344 343 313 268 229 233 231 224 206 195 200 199 204 205 211 213 216 222 227 228 223 216 216 209 210 202
139 144 263 200 194 176 149 181 72 120 158 225 247 249 219 237 237 261 285 264 268 269 262 230 220 215 206 199 198 198 205 209 209 214 219 224 222 219 220 221 217 213 207 201
191 153 177 200 197 156 171 183 159 170 195 240 164 267 251 254 265 263 277 287 238 251 249 246 213 200 194 198 195 199 203 207 217 220 221 222 220 216 218 218 215 213 208 204
171 194 176 296 130 33 207 190 149 110 103 188 173 245 218 271 275 242 260 287 272 230 218 225 221 218 202 198 200 192 211 208 223 225 222 219 220 217 216 214 217 211 207 207
145 150 174 223 227 152 195 189 185 161 156 189 222 255 269 285 289 298 286 283 282 285 239 206 184 183 180 190 206 203 219 224 213 215 215 213 211 215 220 215 211 210 207 203
156 194 181 228 210 181 196 187 179 199 200 192 238 208 251 254 266 287 314 308 311 24 52 76 171 168 166 197 204 201 187 210 222 218 217 226 226 217 206 206 214 215 208 207
186 198 162 199 123 190 223 223 197 209 216 246 246 246 240 240 251 298 3 45 66 69 76 76 76 81 92 177 232 236 251 235 233 223 215 209 208 200 208 212 211 208 205 208
167 139 136 220 107 121 275 199 200 196 206 196 223 241 182 212 198 146 116 102 94 81 77 74 70 63 56 54 58 66 71 129 168 176 168 188 193 197 200 194 191 181 168 163
155 142 118 153 125 222 237 83 204 218 237 216 258 235 223 180 109 98 105 125 109 94 86 76 77 77 67 70 74 82 80 80 84 88 99 119 133 132 143 147 136 126 132 134
198 135 124 153 200 300 212 194 177 178 254 216 228 214 155 136 121 79 64 94 108 101 91 85 81 83 83 81 87 89 85 87 88 90 93 101 111 113 116 117 115 108 128 204
96 74 149 143 190 223 182 203 142 119 272 195 193 182 160 159 169 164 155 126 106 96 89 90 88 90 87 85 93 91 89 90 88 92 95 101 109 104 98 100 103 207 260 289
113 53 173 157 220 285 243 143 143 156 260 191 186 172 166 180 151 132 134 113 103 107 107 104 97 90 90 96 95 89 91 90 98 99 97 93 89 90 77 12 323 312 306 299
162 158 177 114 142 262 159 102 175 212 179 184 174 171 159 123 126 128 128 125 124 119 112 105 98 92 92 95 96 94 90 97 98 98 92 84 75 66 49 27 350 334 325 313
217 196 179 190 205 198 202 196 191 148 184 189 167 159 142 140 144 139 134 131 127 120 112 108 105 99 90 90 96 95 91 98 96 88 78 71 64 52 35 21 0 343 335 322
243 187 183 126 209 220 220 235 228 189 205 174 166 150 153 150 149 140 137 135 130 126 118 116 109 102 95 90 89 91 97 100 94 84 73 62 54 41 28 19 9 353 346 339
205 151 166 260 265 315 251 228 203 173 144 127 116 147 146 140 144 142 140 137 132 126 121 118 113 108 101 95 89 90 93 93 87 79 65 48 34 24 14 15 6 2 354 348
202 180 171 211 206 184 222 196 168 160 170 155 137 126 138 144 142 141 136 137 133 128 126 119 115 112 106 97 89 83 81 78 78 70 49 36 29 19 15 5 357 355 1 358